Regional Weather Roundup
Issued by NWS Jackson, KY

Home | Current Version | Previous Version | Text Only | Print | Product List | Glossary Off
Versions: 1 2 3 4 5 6 7 8 9 10 11 12 13 14 15 16 17 18 19 20 21 22 23 24 25 26 27 28 29 30 31 32 33 34 35 36 37 38 39 40 41 42 43 44 45 46 47 48 49 50

000
ASUS43 KJKL 090910
RWRJKL

EAST KENTUCKY HOURLY WEATHER ROUNDUP
NATIONAL WEATHER SERVICE JACKSON KY
400 AM EST TUE FEB 09 2016

NOTE: "FAIR" INDICATES FEW OR NO CLOUDS BELOW 12,000 FEET WITH
NO SIGNIFICANT WEATHER AND/OR OBSTRUCTIONS TO VISIBILITY.

* THESE REPORTS ARE NOT UNDER NWS QUALITY CONTROL AND MAY NOT
  REPORT WEATHER SUCH AS PRECIPITATION AND FOG.

KYZ079-080-083-085-087-088-110-112-115-119-120-091000
...EASTERN KENTUCKY...

CITY           SKY/WX    TMP DP  RH WIND       PRES   REMARKS
JACKSON        LGT SNOW  23  18  81 VRB6      29.69F WCI  16
LONDON         CLOUDY    22  16  78 W8        29.74F WCI  12
SOMERSET*      LGT SNOW  21  18  86 W9        29.80S WCI  11
MONTICELLO*    FLURRIES  22  17  81 W8        29.80F WCI  12
WILLIAMSBURG*  CLOUDY    23  18  80 CALM      29.76S
MIDDLESBORO*   LGT SNOW  26  20  81 NW12      29.75S WCI  15
HARLAN APT*    CLOUDY    25  21  86 CALM      29.70S
BLACK MTN*       N/A     14  14 100 W2          N/A
BIG SANDY*     LGT SNOW  25  23  91 W3        29.68F
MOREHEAD APT*  FLURRIES  23  19  86 NW8G14    29.73S WCI  14
$$

KYZ035-036-041-042-044-050-067-078-099-091000
...CENTRAL KENTUCKY...

CITY           SKY/WX    TMP DP  RH WIND       PRES   REMARKS
MT STERLING*   MOCLDY    21  18  86 NW8       29.75S WCI  12
DANVILLE*      CLOUDY    21  16  79 W9        29.77S WCI  11
RICHMOND*      CLOUDY    21  16  79 W14       29.75S WCI   8
LEXINGTON      CLOUDY    20  13  74 W10       29.75S WCI   9
FRANKFORT      CLOUDY    20  13  74 W5        29.75F WCI  13
$$

KYZ091>093-OHZ055-061-077-WVZ005-015-034-035-042-091000
...SOUTHERN OHIO/WEST VIRGINIA...

CITY           SKY/WX    TMP DP  RH WIND       PRES   REMARKS
COVINGTON      LGT SNOW  21  16  81 W10       29.71S WCI  10
COLUMBUS       LGT SNOW  27  24  89 W14       29.60F FOG     WCI  16
DAYTON         LGT SNOW  23  21  92 W10       29.65S FOG     WCI  12
WILMINGTON     LGT SNOW  20  18  92 W17       29.65S FOG     WCI   5
HUNTINGTON     FLURRIES  26  19  74 W9        29.68S WCI  17
CHARLESTON     LGT SNOW  29  25  85 W10G17    29.64R VSB 1   WCI  20
PINEVILLE*     LGT SNOW  28  24  84 MISG      29.65S
BECKLEY        LGT SNOW  26  22  84 W9        29.54F FOG     WCI  17
$$

VAZ002-007-008-TNZ017-027-036-066-071-091000
...SOUTHWEST VIRGINIA/EAST TENNESSEE...

CITY           SKY/WX    TMP DP  RH WIND       PRES   REMARKS
BRISTOL        CLOUDY    27  21  78 SW13      29.68F WCI  16
KNOXVILLE      CLOUDY    29  17  61 W10       29.77F WCI  20
OAK RIDGE      CLOUDY    29  19  66 W7        29.78S WCI  22
CROSSVILLE     CLOUDY    22  13  68 NW9G21    29.74S WCI  12
NASHVILLE      FLURRIES  27  19  72 NW7       29.85F WCI  19
$$

...KEY TO REMARKS...
VSB - VISIBILITY IN MILES
WCI - WIND CHILL INDEX
HX  - HEAT INDEX

$$



USA.gov is the U.S. government's official web portal to all federal, state and local government web resources and services.